Tracking 27126 objects as of 30-Mar-2023
HD Live streaming from Space Station
objects crossing your sky now

SL-8 DEB

Track SL-8 DEB now!
10-day predictions


NORAD ID: 21401
Int'l Code: 1991-009BQ
Perigee: 1,498.3 km
Apogee: 1,728.5 km
Inclination: 74.1 °
Period: 118.3 minutes
Semi major axis: 7984 km
RCS: 0.0527 m2 (small)
Launch date: February 12, 1991
Source: Commonwealth of Independent States (former USSR) (CIS)
Launch site: PLESETSK MISSILE AND SPACE COMPLEX (PKMTR)

Note: This is SATELLITE DEBRIS
Your satellite tracking list
Your tracking list is empty




NASA's NSSDC Master Catalog

Two Line Element Set (TLE):
1 21401U 91009BQ  23088.31189439 -.00000036  00000-0 -22007-3 0  9991
2 21401  74.1363  43.7677 0144136 159.3296 321.2805 12.16851190423646
Source of the keplerian elements: AFSPC